Location: Napa Soda Springs
(38.3907°N, 122.2794°W)
Time: 07:19:37
(UTC+00:00)

Cosmos 1992 Rocket - Pass Details

Date: 29 October 2020
Orbit: 759 x 766 km, 74.0° (Epoch: 03 December)

Event Time Altitude Azimuth Distance (km) Brightness Sun altitude
Exits shadow 12:59:08 - 336° (NNW) 2,411 6.3 -18.9°
Reaches altitude 10° 12:59:26 10° 336° (NNW) 2,298 6.2 -18.8°
Maximum altitude 13:04:35 66° 255° (WSW) 833 3.9 -17.8°
Drops below altitude 10° 13:09:44 10° 174° (S) 2,288 6.6 -16.8°
Sets 13:12:06 0° 171° (S) 3,210 7.4 -16.4°
